Weather History for Klamath Falls, OR

Change the Weather History Date:

Saturday, October 26, 2013

  Actual Average Record
Temperature  
Mean Temperature 47 °F 43 °F  
Max Temperature 71 °F 57 °F 75 °F (2003)
Min Temperature 23 °F 29 °F 20 °F (1967)
Degree Days  
Heating Degree Days 18 22  
Month to date heating degree days 511 445  
Since 1 July heating degree days 835 801  
Cooling Degree Days 0 0  
Month to date cooling degree days 0 0  
Year to date cooling degree days 285 169  
Moisture  
Dew Point 25 °F    
Average Humidity 56    
Maximum Humidity 88    
Minimum Humidity 16    
Precipitation  
Precipitation 0.00 in 0.06 in 0.55 in (1950)
Month to date precipitation 0.01 0.72  
Year to date precipitation 4.91 10.99  
Sea Level Pressure  
Sea Level Pressure 30.24 in    
Wind  
Wind Speed 1 mph (ESE)    
Max Wind Speed 6 mph    
Max Gust Speed 7 mph    
Visibility 10 miles    
Events      
T = Trace of Precipitation, MM = Missing Value Source: NWS Daily Summary

Daily Weather History Graph

Daily Weather History Graph

Search for Another Location

Airport:

Trip Planner

Search our weather history database for the weather conditions in past years. The results will help you decide how hot, cold, wet, or windy it might be!

Date:

Astronomy

Oct. 26, 2013 Rise Set
Actual Time 7:32 AM PDT 6:08 PM PDT
Civil Twilight 7:04 AM PDT 6:36 PM PDT
Nautical Twilight 6:31 AM PDT 7:09 PM PDT
Astronomical Twilight 5:58 AM PDT 7:42 PM PDT
Moon No Moon Rise 1:52 PM PDT (10/26)
Length of Visible Light 11h 32m
Length of Day
10h 35m
Waning Gibbous, 52% of the Moon is Illuminated
Oct 26
Waning Gibbous
Oct 26
Last Quarter
Nov 3
New
Nov 9
First Quarter
Nov 17
Full

Hourly Weather History & Observations

Time (PDT) Temp. Windchill Dew Point Humidity Pressure Visibility Wind Dir Wind Speed Gust Speed Precip Events Conditions
12:53 AM 32.0 °F 28.7 °F 26.1 °F 79% 30.26 in 10.0 mi SE 3.5 mph - N/A   Clear
1:53 AM 28.9 °F - 23.0 °F 78% 30.26 in 10.0 mi Calm Calm - N/A   Clear
2:53 AM 27.0 °F - 21.0 °F 78% 30.27 in 10.0 mi Calm Calm - N/A   Clear
3:53 AM 28.9 °F - 24.1 °F 82% 30.25 in 10.0 mi Calm Calm - N/A   Clear
4:53 AM 25.0 °F - 21.0 °F 85% 30.26 in 10.0 mi Calm Calm - N/A   Clear
5:53 AM 26.1 °F - 19.9 °F 78% 30.28 in 10.0 mi Calm Calm - N/A   Clear
6:53 AM 25.0 °F - 19.9 °F 81% 30.32 in 10.0 mi Calm Calm - N/A   Clear
7:53 AM 25.0 °F - 21.0 °F 85% 30.34 in 10.0 mi Calm Calm - N/A   Clear
8:53 AM 35.1 °F - 27.0 °F 72% 30.35 in 10.0 mi Calm Calm - N/A   Clear
9:53 AM 42.1 °F - 33.1 °F 70% 30.35 in 10.0 mi Calm Calm - N/A   Clear
10:53 AM 48.9 °F - 33.1 °F 54% 30.32 in 10.0 mi Calm Calm - N/A   Clear
11:53 AM 55.9 °F - 32.0 °F 40% 30.28 in 10.0 mi SE 3.5 mph - N/A   Clear
12:53 PM 62.1 °F - 30.0 °F 30% 30.26 in 10.0 mi Calm Calm - N/A   Clear
1:53 PM 66.0 °F - 27.0 °F 23% 30.21 in 10.0 mi Calm Calm - N/A   Clear
2:53 PM 66.9 °F - 25.0 °F 21% 30.19 in 10.0 mi Calm Calm - N/A   Clear
3:53 PM 69.1 °F - 23.0 °F 18% 30.17 in 10.0 mi Calm Calm - N/A   Clear
4:53 PM 70.0 °F - 21.0 °F 16% 30.16 in 10.0 mi South 3.5 mph - N/A   Clear
5:53 PM 63.0 °F - 24.1 °F 23% 30.16 in 10.0 mi Calm Calm - N/A   Clear
6:53 PM 48.0 °F - 26.1 °F 42% 30.19 in 10.0 mi East 3.5 mph - N/A   Clear
7:53 PM 42.1 °F 40.2 °F 23.0 °F 47% 30.21 in 10.0 mi NNE 3.5 mph - N/A   Clear
8:53 PM 36.0 °F - 23.0 °F 59% 30.19 in 10.0 mi Calm Calm - N/A   Clear
9:53 PM 34.0 °F - 24.1 °F 67% 30.17 in 10.0 mi Calm Calm - N/A   Clear
10:53 PM 35.1 °F - 21.9 °F 59% 30.14 in 10.0 mi Calm Calm - N/A   Clear
11:53 PM 33.1 °F - 23.0 °F 66% 30.12 in 10.0 mi Calm Calm - N/A   Clear